Regional Weather Roundup
Issued by NWS Midland/Odessa, TX

Home | Current Version | Previous Version | Text Only | Print | Product List | Glossary On
Versions: 1 2 3 4 5 6 7 8 9 10 11 12 13 14 15 16 17 18 19 20 21 22 23 24 25 26 27 28 29 30 31 32 33 34 35 36 37 38 39 40 41 42 43 44 45 46 47 48 49 50
000
ASUS44 KMAF 180310
RWRMAF
MIDLAND AREA WEATHER ROUNDUP
NATIONAL WEATHER SERVICE MIDLAND TX
1000 PM CDT FRI APR 17 2015

...IN SOUTHWEST TEXAS AND SOUTHEAST NEW MEXICO...

CITY           SKY/WX    TMP DP  RH WIND       PRES   REMARKS
ALPINE         CLOUDY    57  38  49 S3        30.06R
ANDREWS        FAIR      63  32  31 CALM      29.96R
ARTESIA        CLEAR     57  18  21 SW12      29.97R
BIG SPRING     PTCLDY    66  52  59 E6        29.97R
CARLSBAD       CLEAR     59  15  18 W3        29.95R
DRYDEN           N/A     69  62  78 E6        29.90R
FORT STOCKTON  CLEAR     65  34  31 SE8       29.94R
GUAD PASS      CLEAR     54   5  14 W13       30.05R
HOBBS          CLEAR     54  34  47 W7        29.98R
MARFA          CLOUDY    55  36  47 NE8       30.03R
MIDLAND AIRPK  MOCLDY    68  31  25 CALM      29.94R
MIDLAND INTL   MOCLDY    63  39  41 NE7       29.93R
ODESSA         MOCLDY    62  35  36 NE7       29.94R
PECOS          PTCLDY    65  24  21 NW6       29.92R
PRESIDIO       MOCLDY    73  31  21 N13       29.89R
SEMINOLE       PTCLDY    57  36  44 W6        29.97R
SNYDER         MOCLDY   N/A N/A N/A E6        29.96R
WINK           PTCLDY    66  15  14 N6        29.92R
$$
...OTHER STATIONS IN TEXAS...

CITY           SKY/WX    TMP DP  RH WIND       PRES   REMARKS
ABILENE        PTCLDY    64  58  80 CALM      29.95R
AMARILLO       PTCLDY    56  54  93 SE13      29.97R
AUSTIN         CLOUDY    67  67 100 N9        29.89F
BROWNSVILLE    CLOUDY    76  74  93 S7        29.83R
CORPUS CHRISTI TSTM      70  65  84 NW31G49   29.88R
DALLAS FTW     TSTM      64  63  96 E14       29.94F
DEL RIO        PTCLDY    67  61  81 CALM      29.87R
EL PASO        PTCLDY    66   5   9 NW15      29.97R
HOUSTON INT    RAIN      72  70  93 NE18G25   29.85F
LUBBOCK        CLEAR     61  53  75 SE9       29.95R
SAN ANGELO     CLEAR     62  58  86 SE5       29.93R
SAN ANTONIO    CLOUDY    67  63  87 NE5       29.87R
WACO           CLOUDY    68  66  93 N6        29.94R
WICHITA FALLS  NOT AVBL
$$
...OTHER LOCATIONS IN NEW MEXICO...

CITY           SKY/WX    TMP DP  RH WIND       PRES   REMARKS
ALAMAGORDO     PTCLDY    52  14  22 SE8       29.99R
ALBUQUERQUE    CLOUDY    49  21  33 N8        30.05R
CANNON AFB     NOT AVBL
CLOVIS         CLEAR     48  19  32 W8        29.97R
HOLLOMAN AFB   PTCLDY    56  10  16 SW8       29.97R
ROSWELL        CLEAR     55  24  30 W3        29.96R
RUIDOSO        CLEAR     41  10  28 SW9       30.07R WCI  35
SANTA FE       CLOUDY    41  15  35 NW6       30.04R WCI  37
TRUTH OR CONSE PTCLDY    58  17  20 NW12      30.00R
TUCUMCARI      CLEAR     52  12  20 NW10      29.96R
$$



USA.gov is the U.S. government's official web portal to all federal, state and local government web resources and services.